Simultaneous Nadir Overpasses (SNOs) Predictions

Prediction of SNOs between GOES-15 and METOP-B Satellite Orbit:

Table of predicted SNOs for the next 14.0 days since TLE Epoch: 9/28/2024
Index Date Time (GOES-15) GOES-15 Lat,Lon METOP-B Lat,Lon Distance(km) Time Diff (sec)
1 09/28/2024 17:12:06 0.28, 61.36 0.40, 61.84 54.71 80
2 09/30/2024 05:28:15 -0.29, 61.21 0.61, 57.27 450.17 80
3 10/01/2024 05:10:15 -0.28, 61.21 -0.54, 62.26 119.71 80
4 10/02/2024 17:26:32 0.30, 61.34 -0.51, 57.66 419.47 80
5 10/03/2024 17:08:31 0.29, 61.34 0.58, 62.66 149.91 80
6 10/05/2024 05:24:40 -0.30, 61.21 0.40, 58.09 355.64 80
7 10/06/2024 05:06:39 -0.29, 61.21 -0.71, 63.08 213.73 80
8 10/07/2024 17:25:36 0.30, 61.35 -0.32, 58.49 326.03 80
9 10/08/2024 17:04:53 0.29, 61.36 0.73, 63.49 242.55 80
10 10/10/2024 05:21:03 -0.29, 61.24 0.22, 58.92 264.58 80
11 10/11/2024 05:03:01 -0.28, 61.25 -0.90, 63.91 304.03 80
